Location: Croydon
(51.3762°N, 0.0982°W)
Time: 12:49:51
(UTC+00:00)

Altair - Pass Details

Date: 17 November 2019
Orbit: 1502 x 1682 km, 47.2° (Epoch: 12 December)

Event Time Altitude Azimuth Distance (km) Brightness Sun altitude
Rises 11:02:27 0° 285° (WNW) 4,689 9.8 19.0°
Reaches altitude 10° 11:06:49 10° 268° (W) 3,731 9.5 19.1°
Maximum altitude 11:12:19 17° 231° (SW) 3,219 9.8 19.3°
Drops below altitude 10° 11:17:56 10° 194° (SSW) 3,804 11.1 19.4°
Sets 11:22:29 0° 177° (S) 4,821 11.8 19.5°
